Wind_Speed
20 22 25 32 37 38 38 38 38 41 42 42 42 42 44 47 49 50 52 51 52 52 51 50 49 48 47 45 43 43 41 39 39 40 39 38 36 34 34 28 25 20 21 22 22 19 19
20 22 23 24 29 36 39 40 40 41 43 44 46 45 46 47 48 49 52 53 52 52 52 52 51 50 48 45 45 44 43 41 39 38 39 37 36 33 29 24 22 22 23 24 23 20 17
20 21 23 24 26 28 32 37 41 44 45 46 47 48 50 48 49 49 49 49 51 52 52 51 51 50 47 49 49 46 42 41 39 39 38 37 35 30 26 23 24 27 26 24 22 20 16
16 19 22 23 25 27 29 32 34 38 42 47 50 50 50 51 51 50 49 48 49 49 50 51 52 51 49 51 50 44 47 44 40 37 36 34 29 28 25 26 28 30 29 24 20 15 14
14 15 18 20 21 24 27 29 32 35 39 43 48 52 52 51 51 52 49 47 48 48 48 49 49 49 48 50 50 46 46 43 40 34 29 29 27 28 28 28 30 33 29 23 17 14 14
13 14 15 16 18 20 22 24 28 31 34 39 45 48 50 52 51 51 51 49 46 44 44 44 43 43 42 43 45 42 37 37 35 32 27 29 31 32 33 33 33 35 26 22 19 17 12
10 12 13 14 16 18 19 21 22 25 28 32 37 38 41 47 49 51 48 50 51 50 50 48 47 44 42 42 42 40 35 36 35 35 35 31 36 41 38 37 38 36 24 24 24 16 13
4 6 9 12 13 14 16 18 20 20 22 22 23 27 34 40 43 46 50 50 54 55 52 51 50 47 47 46 45 44 43 41 44 43 41 39 44 45 39 35 36 35 26 27 25 23 18
5 5 4 5 8 10 11 12 14 16 16 13 10 9 26 34 38 42 48 51 50 52 50 53 52 49 52 51 50 48 49 47 45 45 43 40 47 40 38 33 37 36 31 29 26 24 18
6 5 4 3 3 4 5 7 8 9 11 10 7 5 12 23 29 32 36 43 50 49 48 47 48 47 48 48 46 47 47 46 46 46 42 41 45 39 37 37 40 38 33 31 26 24 19
6 6 6 6 6 5 5 5 6 7 7 6 7 7 11 15 19 21 26 31 36 41 45 46 48 47 48 49 49 50 49 50 49 47 44 46 48 42 39 43 42 41 34 31 28 23 20
9 9 9 9 9 8 7 7 7 7 7 7 6 7 12 14 16 20 23 25 28 31 34 35 37 40 41 42 44 46 47 48 47 47 46 50 48 45 45 46 44 42 37 34 32 26 21
12 12 12 12 13 11 11 8 11 12 10 8 7 6 9 12 14 19 22 25 27 28 28 27 31 33 34 35 37 39 40 40 41 41 43 45 44 45 48 47 47 47 43 39 36 30 23
15 16 17 16 17 17 17 16 15 14 14 14 14 12 11 12 14 15 18 19 19 19 21 26 32 34 35 33 33 33 35 35 35 37 39 38 39 42 47 48 48 47 45 39 36 28 24
18 18 18 18 22 22 22 21 21 19 18 17 19 20 21 20 19 17 18 18 18 19 21 26 29 32 32 30 32 34 36 33 31 32 34 36 42 41 42 45 45 45 40 39 35 27 27
22 21 21 21 22 23 25 27 25 22 17 19 20 22 24 25 25 24 23 18 17 19 21 23 25 32 29 27 32 33 34 32 31 32 31 34 37 35 41 42 41 42 43 40 33 30 31
25 26 24 21 22 24 24 25 23 22 21 20 20 18 20 22 25 26 25 23 21 21 22 25 28 32 30 28 30 34 38 33 30 31 30 31 33 34 36 38 44 41 42 40 37 33 33
31 30 29 26 24 22 23 25 26 28 27 27 25 25 26 24 24 24 25 27 26 25 27 26 25 29 29 28 26 30 36 38 31 30 30 29 31 33 35 39 41 40 41 40 39 37 38
34 35 34 32 29 27 24 25 27 28 28 32 31 29 28 25 26 26 28 30 30 29 29 30 30 30 32 31 30 30 32 36 35 32 31 28 30 31 35 34 40 40 39 39 40 39 37
39 38 37 37 36 33 30 28 29 29 30 31 31 30 27 28 29 32 33 32 33 32 33 34 37 36 34 34 33 30 32 37 38 35 32 29 29 31 31 36 33 36 38 36 38 38 42
44 43 42 41 39 37 35 33 33 33 31 32 33 33 31 32 34 34 35 36 37 37 37 39 41 42 40 36 36 36 36 38 42 37 32 30 28 30 30 32 30 35 39 37 34 35 36
46 45 45 43 43 43 41 38 39 38 37 36 33 33 34 35 35 33 37 39 41 42 42 41 43 43 42 40 38 38 40 42 44 38 33 30 27 28 26 26 29 29 32 35 34 31 34
48 47 45 44 45 44 44 42 40 40 39 38 37 36 36 36 35 36 40 41 43 44 44 43 42 45 42 40 42 40 41 42 43 38 37 32 30 29 27 25 23 27 28 30 34 32 31
50 48 47 45 44 41 41 42 40 37 35 37 37 37 36 37 38 39 41 41 41 41 42 43 43 44 43 41 40 35 40 45 45 43 43 37 32 30 29 26 19 29 33 31 34 35 33
54 52 50 47 45 45 44 41 39 36 32 33 34 38 38 37 37 36 35 35 37 39 40 39 38 39 39 40 39 35 43 52 52 51 46 39 36 32 29 23 19 29 34 30 36 29 35
59 56 53 52 49 46 45 43 41 38 36 34 33 31 31 31 30 30 32 33 33 34 34 33 32 35 39 35 36 40 50 57 57 53 48 42 40 32 26 31 25 30 34 30 33 30 32
63 61 57 53 50 49 46 44 42 41 37 35 32 29 31 29 25 30 30 29 30 32 34 33 30 33 36 34 33 43 53 57 54 51 49 43 38 35 31 31 33 33 36 30 32 35 39
67 63 61 57 54 51 50 48 43 41 39 38 36 33 32 31 27 32 30 30 35 34 34 34 29 29 32 24 32 41 49 50 51 49 48 43 40 34 26 21 23 34 29 27 31 37 35
72 69 66 62 59 57 53 50 47 42 41 41 41 39 37 34 29 36 35 32 35 35 37 35 29 22 23 23 29 40 45 51 53 48 44 39 40 36 31 29 23 22 24 24 28 37 26
Wind_Direction
234 233 234 234 233 234 236 236 236 237 234 231 230 231 233 236 237 237 235 237 239 241 243 244 247 251 253 257 260 263 269 272 275 282 287 289 297 302 300 306 305 309 313 320 325 326 316
241 238 236 235 236 236 237 237 238 238 239 240 239 234 232 233 235 238 239 238 239 242 244 246 250 253 255 259 261 263 268 271 277 282 285 291 294 298 294 299 300 303 309 315 317 316 314
241 240 240 238 238 237 237 239 241 241 240 239 238 238 236 233 234 235 238 240 241 242 244 248 251 252 256 259 260 262 268 271 274 279 285 287 290 286 287 290 291 300 306 311 310 310 316
251 245 244 245 245 243 243 243 243 244 244 243 241 238 236 235 234 235 236 238 240 241 243 246 249 252 255 259 262 263 267 268 271 275 279 281 281 279 279 279 289 298 302 307 302 302 306
255 250 247 246 246 247 247 248 248 249 249 249 246 242 238 236 235 234 236 238 240 242 245 248 250 252 255 258 261 261 264 267 269 270 270 272 274 275 276 278 291 296 300 296 296 294 299
261 254 253 253 250 250 251 250 252 255 256 256 255 250 242 237 235 235 235 237 240 243 246 248 251 252 253 257 260 261 262 263 263 265 263 266 274 275 277 283 290 291 293 289 294 292 292
276 270 265 260 257 256 257 256 260 262 265 269 266 252 238 233 233 234 234 235 238 240 242 244 247 249 251 255 260 262 257 264 266 267 267 267 272 272 277 284 285 282 285 287 290 286 283
301 293 278 270 267 266 262 261 262 269 273 282 276 248 227 223 227 230 231 233 236 241 244 250 253 255 255 255 256 259 261 259 266 266 267 268 266 271 277 279 278 275 280 283 287 290 298
349 334 314 304 287 276 274 274 271 271 283 294 307 237 211 215 221 227 230 233 238 242 244 249 251 253 256 257 259 261 263 263 263 264 264 264 265 269 270 269 270 273 274 277 280 285 287
330 332 339 347 331 318 314 293 293 289 283 285 283 231 212 220 229 234 238 240 241 246 249 250 254 256 257 259 261 259 260 262 261 260 261 261 264 261 265 266 265 267 270 273 274 281 284
302 307 314 311 320 336 342 319 317 318 306 292 267 251 231 225 229 232 235 237 241 244 248 250 254 255 256 258 258 258 259 258 259 261 260 258 259 261 262 261 265 265 268 273 273 272 279
276 290 295 300 309 317 325 333 337 339 332 327 295 260 247 238 233 231 236 240 242 246 251 253 255 258 257 257 258 258 257 257 256 256 256 256 257 258 253 254 257 259 263 264 263 266 269
272 273 280 287 289 291 302 306 318 322 318 310 301 286 265 257 249 246 247 249 251 253 255 255 253 251 250 252 253 254 255 254 255 254 253 255 255 254 254 251 250 254 250 250 254 258 259
284 277 270 267 273 276 280 283 292 296 293 290 286 278 269 262 262 262 259 259 258 254 253 252 252 253 254 252 256 259 262 260 257 257 255 252 251 247 246 246 244 246 252 254 254 257 253
288 286 281 275 268 267 268 274 283 287 286 283 273 268 264 264 264 261 267 268 262 259 255 254 260 262 259 259 257 257 257 256 253 254 254 251 249 248 248 249 246 245 249 251 256 252 248
281 281 283 282 279 276 271 266 269 279 279 290 287 273 265 262 259 256 262 259 262 268 263 257 265 271 274 269 262 255 256 258 257 251 252 250 251 247 245 247 247 243 240 238 236 240 241
274 276 278 278 284 283 284 276 273 258 262 275 276 278 275 265 260 256 255 263 268 270 263 260 262 271 275 273 261 258 258 253 252 252 251 253 251 245 246 246 244 240 239 236 232 226 229
271 274 276 273 278 284 287 285 275 269 270 273 274 273 272 271 265 262 264 266 266 271 274 271 271 271 268 268 270 261 257 259 247 250 256 254 256 250 245 242 243 241 237 235 230 226 227
268 272 272 275 276 278 282 287 283 279 275 273 271 272 272 270 270 265 265 266 269 272 276 276 275 275 271 265 263 268 262 250 248 245 250 248 249 251 248 246 246 241 240 235 232 227 225
265 270 269 272 276 277 279 284 284 282 278 277 277 269 271 268 272 267 267 269 271 274 272 276 278 274 275 273 263 261 261 253 242 240 246 243 247 247 243 244 244 243 240 235 233 227 226
262 266 268 271 274 276 277 278 281 281 279 278 277 274 270 269 269 272 272 275 275 276 278 280 280 281 278 272 261 254 250 250 242 234 238 240 238 247 244 243 241 241 237 236 236 232 231
263 265 267 269 270 272 276 279 280 278 274 274 276 275 272 270 271 271 273 275 276 278 284 283 281 279 277 271 267 254 253 246 237 231 231 229 226 233 239 242 241 246 246 238 235 233 231
263 264 264 268 274 274 275 277 278 277 275 269 269 269 270 270 272 275 275 276 278 280 282 282 280 279 276 273 269 260 248 232 227 225 226 230 227 232 244 242 236 238 243 238 235 227 228
260 262 262 265 268 271 272 275 277 279 274 269 268 267 266 268 271 274 276 279 280 281 282 282 279 278 274 270 268 254 229 215 213 216 220 223 222 228 240 240 238 233 239 231 226 227 216
259 260 261 262 263 267 271 275 277 277 276 275 272 267 267 270 270 271 276 278 280 283 286 285 280 275 274 271 262 245 216 209 205 211 215 221 224 230 236 215 229 234 239 233 226 223 217
258 257 259 261 263 264 269 270 272 275 278 278 277 266 263 263 266 270 274 280 292 293 292 291 283 279 278 271 251 234 210 209 206 204 211 218 222 229 229 225 236 239 240 236 230 224 218
255 256 256 257 259 261 262 265 267 271 270 273 271 270 264 262 264 265 273 288 298 302 301 302 287 288 278 272 238 224 211 212 207 205 208 213 222 221 222 232 238 241 236 230 225 225 228
252 253 253 253 254 255 258 262 264 267 264 264 267 266 264 264 260 267 279 286 291 302 308 307 291 286 284 247 215 212 211 211 210 210 208 209 216 194 198 209 223 232 232 227 228 227 229
249 250 251 252 254 255 256 260 263 262 261 260 259 262 261 262 262 268 273 280 289 296 305 302 286 278 266 222 201 207 208 210 211 211 209 209 211 199 201 216 222 237 248 217 221 225 210
Height
10897 10898 10899 10901 10904 10907 10911 10914 10917 10921 10924 10927 10930 10933 10937 10941 10945 10948 10953 10957 10961 10964 10967 10969 10970 10972 10974 10978 10979 10978 10979 10980 10982 10981 10981 10980 10981 10979 10974 10974 10973 10973 10970 10967 10966 10966 10962
10892 10894 10895 10896 10898 10901 10904 10907 10910 10913 10916 10919 10923 10926 10929 10932 10937 10941 10945 10949 10953 10957 10961 10962 10964 10966 10969 10972 10971 10972 10974 10976 10977 10976 10976 10977 10975 10975 10971 10971 10969 10968 10968 10966 10964 10963 10961
10888 10889 10891 10892 10894 10896 10898 10900 10902 10904 10907 10909 10912 10916 10920 10924 10928 10932 10936 10941 10946 10950 10953 10955 10957 10959 10964 10962 10963 10967 10969 10971 10972 10971 10971 10971 10970 10969 10968 10967 10965 10964 10964 10964 10962 10961 10959
10884 10885 10886 10887 10889 10891 10892 10894 10895 10897 10898 10900 10902 10905 10909 10914 10919 10924 10928 10933 10937 10941 10944 10947 10949 10953 10956 10953 10957 10964 10961 10963 10966 10966 10966 10965 10965 10963 10965 10963 10962 10961 10960 10960 10960 10960 10958
10880 10881 10882 10883 10884 10885 10886 10888 10888 10889 10890 10891 10892 10894 10899 10904 10909 10915 10920 10925 10928 10933 10936 10939 10942 10946 10949 10947 10949 10954 10955 10956 10958 10961 10961 10959 10960 10959 10959 10960 10959 10956 10956 10956 10958 10957 10956
10877 10878 10878 10878 10879 10880 10881 10881 10882 10882 10882 10882 10881 10883 10888 10893 10899 10905 10912 10918 10922 10926 10928 10930 10932 10936 10939 10939 10940 10945 10949 10949 10951 10953 10956 10955 10953 10953 10953 10954 10956 10952 10953 10953 10954 10953 10955
10875 10875 10875 10875 10875 10875 10875 10876 10876 10875 10874 10872 10869 10869 10874 10881 10889 10896 10904 10909 10912 10914 10916 10919 10922 10927 10930 10933 10934 10937 10942 10941 10943 10946 10947 10952 10949 10944 10947 10948 10948 10946 10950 10950 10948 10951 10953
10872 10872 10872 10871 10871 10871 10871 10871 10871 10869 10868 10865 10860 10858 10864 10872 10881 10887 10894 10899 10902 10904 10911 10913 10915 10920 10921 10924 10926 10928 10930 10935 10934 10936 10939 10943 10940 10938 10942 10943 10940 10938 10945 10943 10943 10943 10946
10871 10870 10870 10869 10868 10868 10867 10867 10866 10865 10863 10861 10857 10855 10859 10867 10874 10878 10884 10890 10893 10895 10901 10902 10905 10911 10910 10912 10916 10921 10921 10924 10926 10927 10929 10933 10927 10934 10934 10935 10932 10932 10937 10938 10939 10940 10943
10869 10868 10868 10867 10866 10866 10865 10864 10863 10862 10861 10860 10859 10859 10861 10865 10870 10874 10879 10882 10884 10889 10893 10896 10898 10901 10901 10903 10907 10909 10910 10914 10915 10916 10921 10924 10920 10925 10927 10927 10925 10926 10930 10931 10934 10936 10938
10866 10866 10865 10865 10865 10864 10863 10862 10861 10860 10859 10859 10859 10860 10861 10863 10866 10870 10871 10873 10876 10878 10881 10886 10888 10891 10892 10894 10896 10898 10901 10901 10904 10907 10913 10911 10910 10916 10921 10916 10917 10918 10924 10926 10928 10931 10931
10863 10863 10863 10863 10862 10862 10862 10861 10860 10859 10858 10857 10857 10858 10859 10861 10862 10864 10865 10867 10870 10872 10874 10878 10880 10881 10883 10883 10885 10886 10889 10890 10893 10895 10898 10897 10902 10906 10908 10907 10910 10911 10916 10918 10920 10925 10928
10859 10859 10859 10859 10859 10859 10859 10859 10858 10857 10857 10857 10856 10856 10856 10856 10858 10859 10860 10862 10864 10866 10869 10872 10869 10868 10871 10873 10873 10875 10877 10879 10882 10885 10886 10888 10892 10893 10894 10898 10900 10899 10904 10908 10912 10918 10923
10855 10855 10855 10855 10855 10855 10855 10855 10854 10854 10854 10854 10853 10853 10853 10853 10854 10855 10855 10857 10858 10860 10861 10860 10859 10860 10863 10867 10868 10869 10869 10871 10874 10874 10877 10880 10880 10879 10879 10882 10887 10892 10895 10902 10905 10913 10918
10850 10851 10851 10851 10850 10850 10850 10850 10850 10850 10849 10849 10849 10848 10848 10849 10848 10849 10850 10851 10853 10853 10854 10852 10852 10852 10855 10859 10860 10860 10860 10862 10866 10866 10867 10868 10866 10870 10872 10873 10879 10884 10891 10894 10901 10908 10910
10845 10845 10845 10845 10844 10844 10843 10844 10845 10845 10845 10844 10843 10842 10841 10841 10842 10843 10844 10846 10846 10847 10847 10847 10846 10842 10848 10851 10850 10849 10849 10855 10857 10857 10859 10859 10859 10862 10862 10865 10869 10873 10877 10882 10891 10899 10901
10839 10839 10839 10839 10838 10837 10836 10837 10837 10838 10839 10838 10838 10836 10835 10834 10835 10836 10837 10838 10839 10840 10841 10841 10842 10839 10840 10840 10842 10843 10840 10845 10849 10850 10851 10852 10852 10854 10855 10857 10855 10864 10869 10873 10880 10887 10892
10831 10831 10831 10832 10831 10830 10830 10830 10830 10830 10831 10830 10831 10830 10829 10828 10828 10829 10829 10830 10831 10833 10833 10834 10835 10834 10833 10832 10832 10834 10836 10835 10841 10844 10844 10847 10846 10847 10847 10847 10849 10855 10859 10865 10871 10876 10880
10821 10821 10822 10822 10822 10822 10822 10822 10822 10822 10822 10821 10821 10822 10821 10822 10821 10821 10820 10820 10822 10825 10824 10824 10825 10825 10824 10824 10825 10824 10825 10827 10830 10834 10836 10839 10838 10840 10841 10843 10842 10847 10853 10857 10862 10870 10874
10810 10811 10811 10812 10812 10812 10812 10813 10813 10813 10813 10812 10811 10812 10814 10813 10812 10812 10812 10812 10814 10816 10815 10814 10810 10813 10815 10815 10816 10817 10815 10816 10821 10825 10828 10832 10832 10831 10834 10833 10837 10840 10843 10848 10854 10861 10866
10797 10799 10800 10800 10801 10801 10802 10802 10803 10804 10804 10803 10802 10803 10804 10804 10803 10803 10802 10801 10802 10802 10804 10804 10801 10800 10801 10802 10803 10804 10805 10805 10810 10816 10820 10825 10826 10825 10826 10827 10831 10832 10834 10840 10847 10855 10863
10783 10785 10787 10788 10789 10790 10790 10791 10791 10793 10793 10794 10793 10792 10792 10793 10793 10794 10790 10790 10790 10788 10791 10793 10789 10787 10785 10786 10789 10791 10792 10794 10799 10807 10812 10816 10819 10819 10819 10821 10824 10827 10830 10835 10841 10848 10852
10769 10771 10773 10775 10776 10777 10778 10779 10780 10780 10781 10782 10782 10782 10782 10782 10782 10782 10777 10778 10777 10776 10775 10777 10776 10771 10771 10772 10772 10774 10776 10780 10789 10798 10803 10807 10812 10815 10815 10816 10819 10822 10822 10826 10834 10839 10843
10755 10757 10759 10762 10764 10765 10766 10767 10768 10768 10768 10769 10770 10770 10771 10771 10770 10769 10766 10766 10763 10764 10764 10761 10761 10758 10755 10756 10756 10758 10760 10766 10775 10784 10791 10797 10802 10807 10808 10811 10815 10814 10813 10817 10823 10831 10836
10740 10742 10744 10747 10750 10753 10754 10755 10756 10757 10757 10757 10758 10758 10759 10759 10757 10756 10757 10755 10752 10752 10750 10749 10745 10742 10741 10742 10742 10744 10748 10752 10757 10769 10780 10789 10794 10798 10802 10805 10806 10805 10806 10812 10814 10822 10829
10723 10727 10729 10732 10736 10739 10741 10743 10745 10746 10747 10747 10748 10746 10747 10748 10747 10747 10746 10745 10743 10740 10738 10736 10734 10729 10727 10726 10726 10731 10735 10740 10745 10756 10769 10779 10785 10790 10795 10798 10799 10795 10802 10807 10811 10816 10822
10704 10709 10713 10716 10721 10725 10728 10730 10732 10735 10736 10736 10737 10738 10737 10738 10740 10738 10737 10736 10734 10730 10728 10726 10722 10720 10714 10712 10712 10718 10726 10733 10743 10751 10760 10768 10778 10783 10786 10790 10791 10790 10794 10799 10806 10813 10814
10683 10690 10695 10700 10705 10710 10714 10717 10719 10722 10724 10725 10726 10727 10727 10728 10732 10728 10728 10728 10725 10723 10719 10716 10714 10710 10704 10699 10702 10711 10720 10730 10738 10745 10754 10761 10768 10774 10779 10784 10786 10786 10788 10796 10800 10803 10808
10662 10669 10675 10682 10688 10693 10698 10702 10706 10709 10712 10713 10714 10716 10716 10717 10722 10718 10718 10719 10717 10715 10712 10708 10706 10704 10700 10701 10702 10709 10714 10721 10731 10741 10751 10759 10764 10769 10775 10779 10783 10781 10781 10789 10795 10799 10806